Regional Weather Roundup
Issued by NWS

Home | Current Version | Previous Version | Graphics & Text | Print | Product List | Glossary On
Versions: 1 2 3 4 5 6 7 8 9 10 11 12 13 14 15 16 17 18 19 20 21 22 23 24 25 26 27 28 29 30 31 32 33 34 35 36 37 38 39 40 41 42 43 44 45 46 47 48 49 50
000
ASUS43 KTOP 201159
RWRKS

WEATHER ROUNDUP FOR KANSAS
NATIONAL WEATHER SERVICE GOODLAND KS
600 AM CST SAT DEC 20 2014

NOTE:  "FAIR" INDICATES FEW OR NO CLOUDS BELOW 12,000 FEET WITH NO
SIGNIFICANT WEATHER AND/OR OBSTRUCTIONS TO VISIBILITY.

KSZ001>006-013>018-027>032-041>047-201300-
NORTHWEST KANSAS

CITY           SKY/WX    TMP DP  RH WIND       PRES   REMARKS
GOODLAND       CLEAR     29  26  89 W8        30.02S
6HR MIN TEMP:  28; 6HR MAX TEMP:  33;

HAYS           CLEAR     27  18  69 SW6       30.07R
HILL CITY      CLEAR     26  24  92 SW3       30.05S
6HR MIN TEMP:  24; 6HR MAX TEMP:  36;

RUSSELL        CLEAR     28  27  96 S12       30.07R FOG     WCI  18
6HR MIN TEMP:  27; 6HR MAX TEMP:  34;

$$

KSZ061>065-074>080-084>089-201300-
SOUTHWEST KANSAS

CITY           SKY/WX    TMP DP  RH WIND       PRES   REMARKS
DODGE CITY     CLEAR     32  29  88 SW12      30.09S WCI  23
6HR MIN TEMP:  31; 6HR MAX TEMP:  34;

ELKHART          N/A    N/A N/A N/A MISG        N/A
GARDEN CITY    MOCLDY    25  24  96 SW7       30.07R
6HR MIN TEMP:  23; 6HR MAX TEMP:  28;

GREAT BEND     FAIR      28  25  86 S8        30.11R
LIBERAL        CLEAR     28  25  86 S10       30.11R WCI  19
$$

KSZ066>073-081>083-090>101-201300-
SOUTHEAST KANSAS

CITY           SKY/WX    TMP DP  RH WIND       PRES   REMARKS
CHANUTE        CLOUDY    36  34  92 S3        30.21R
6HR MIN TEMP:  34; 6HR MAX TEMP:  36;

COFFEYVILLE    CLOUDY    37  34  89 S6        30.22S
6HR MIN TEMP:  34; 6HR MAX TEMP:  37;

HUTCHINSON     CLEAR     30  29  96 S6        30.13S FOG
6HR MIN TEMP:  30; 6HR MAX TEMP:  34;

MEDICINE LODGE   N/A     34  34 100 S6        30.15R
NEWTON         CLEAR     34  28  80 S10       30.14R WCI  26
PARSONS        CLOUDY    37  34  89 CALM      30.22R
6HR MIN TEMP:  34; 6HR MAX TEMP:  37;

WICHITA INTL   CLEAR     33  31  92 S9        30.15R FOG
6HR MIN TEMP:  33; 6HR MAX TEMP:  38;

WICHITA JABRA  CLEAR     33  31  92 S8        30.15R
6HR MIN TEMP:  30; 6HR MAX TEMP:  37;

WINFIELD       CLOUDY    37  35  92 S9        30.19R
6HR MIN TEMP:  36; 6HR MAX TEMP:  37;

$$

KSZ007>012-019>026-033>040-048>060-102>105-201300-
NORTHEAST KANSAS

CITY           SKY/WX    TMP DP  RH WIND       PRES   REMARKS
CONCORDIA      CLEAR     30  30 100 SW6       30.07R FOG
6HR MIN TEMP:  28; 6HR MAX TEMP:  31;

EMPORIA        CLEAR     30  29  96 S8        30.15S
6HR MIN TEMP:  30; 6HR MAX TEMP:  33;

LAWRENCE       CLOUDY    34  30  85 SE7       30.18F
6HR MIN TEMP:  33; 6HR MAX TEMP:  34;

MANHATTAN      CLEAR     31  29  92 SW8       30.12F FOG
6HR MIN TEMP:  26; 6HR MAX TEMP:  34;

OLATHE IND     CLOUDY    33  30  88 S7        30.19S
6HR MIN TEMP:  32; 6HR MAX TEMP:  33; 6HR PCP: TRACE;

OLATHE EXE     CLOUDY    33  31  92 SW5       30.18S
6HR MIN TEMP:  33; 6HR MAX TEMP:  33;

SALINA         MOCLDY    29  27  92 S3        30.12S FOG
6HR MIN TEMP:  26; 6HR MAX TEMP:  34;

TOPEKA BILLARD CLEAR     32  29  88 SE6       30.17S
6HR MIN TEMP:  32; 6HR MAX TEMP:  35;

TOPEKA FORBES  CLEAR     34  30  85 S9        30.15S
6HR MIN TEMP:  34; 6HR MAX TEMP:  35;

$$



USA.gov is the U.S. government's official web portal to all federal, state and local government web resources and services.